Location: Clayton (historical)
(34.0300°N, 118.0259°W)
Time: 07:48:25
(UTC+00:00)

Cosmos 1455 - Pass Details

Date: 29 October 2020
Orbit: 499 x 521 km, 82.5° (Epoch: 29 November)

Event Time Altitude Azimuth Distance (km) Brightness Sun altitude
Rises 13:32:49 0° 354° (N) 2,654 5.6 -8.2°
Reaches altitude 10° 13:34:58 10° 356° (N) 1,762 4.7 -7.8°
Maximum altitude 13:38:51 81° 84° (E) 532 2.3 -7.0°
Drops below altitude 10° 13:42:41 10° 172° (S) 1,747 5.2 -6.2°
Sets 13:44:48 0° 173° (S) 2,628 6.1 -5.8°
